SP9EPI-13 Weather Reports


time (UTC)temp
C
wind
direction
speed
KPH
gust
KPH
rain 1hr
cm
rain 24hr
cm
rain mn
cm
humidity
%
barometer
mb
20260508013000 11 76 0.0 0.0 0.00 0.00 0.00 99 1010.5
20260508012000 11 78 0.0 0.0 0.00 0.00 0.00 99 1010.5
20260508011000 11 155 3.2 0.0 0.00 0.00 0.00 99 1010.5
20260508010001 11 180 3.2 0.0 0.00 0.00 0.00 99 1010.5
20260508005000 12 231 3.2 0.0 0.00 0.00 0.00 99 1010.8
20260508004000 12 213 14.5 0.0 0.00 0.00 0.00 99 1010.8
20260508003001 11 246 11.3 0.0 0.00 0.00 0.00 99 1010.8
20260508002000 11 287 14.5 0.0 0.00 0.00 0.00 99 1010.5
20260508001000 11 242 6.4 0.0 0.00 0.00 0.00 99 1010.5
20260508000000 11 288 0.0 0.0 0.00 0.00 0.00 99 1010.5
20260507235000 11 187 3.2 0.0 0.00 0.00 0.00 99 1009.8
20260507234001 11 113 0.0 0.0 0.00 0.00 0.00 99 1009.8
20260507233000 11 152 3.2 0.0 0.00 0.00 0.00 99 1010.5
20260507232000 12 176 6.4 0.0 0.00 0.00 0.00 99 1010.5
20260507231001 12 160 11.3 0.0 0.00 0.00 0.00 99 1010.5
20260507230000 12 164 0.0 0.0 0.00 0.00 0.00 99 1010.5
20260507225000 12 173 14.5 0.0 0.00 0.00 0.00 99 1010.8
20260507224001 12 129 3.2 0.0 0.00 0.00 0.00 99 1010.8
20260507223001 12 64 3.2 0.0 0.00 0.00 0.00 99 1010.8
20260507222000 12 162 3.2 0.0 0.00 0.00 0.00 99 1010.8
20260507221001 12 48 6.4 0.0 0.00 0.00 0.00 99 1010.5
20260507220000 12 56 11.3 0.0 0.00 0.00 0.00 99 1010.5
20260507215001 12 102 0.0 0.0 0.00 0.00 0.00 99 1010.5
20260507214001 12 84 6.4 0.0 0.00 0.00 0.00 99 1010.5
20260507213001 12 97 3.2 0.0 0.00 0.00 0.00 99 1010.8
20260507212000 12 56 6.4 0.0 0.00 0.00 0.00 99 1010.5
20260507211000 12 63 14.5 0.0 0.00 0.00 0.00 99 1010.5
20260507210000 12 44 11.3 0.0 0.00 0.00 0.00 99 1010.5
20260507205000 12 9 11.3 0.0 0.00 0.00 0.00 99 1010.5
20260507204000 12 17 14.5 0.0 0.00 0.00 0.00 99 1010.5
20260507203000 12 63 20.9 0.0 0.00 0.00 0.00 99 1010.5
20260507202001 13 16 29.0 0.0 0.00 0.00 0.00 99 1009.8
20260507201000 13 73 20.9 0.0 0.00 0.00 0.00 99 1009.4
20260507200000 13 358 20.9 0.0 0.00 0.00 0.00 99 1009.1
20260507195000 13 66 3.2 0.0 0.00 0.00 0.00 99 1009.1
20260507194001 13 11 0.0 0.0 0.00 0.00 0.00 99 1009.1
20260507193001 13 21 6.4 0.0 0.00 0.00 0.00 99 1008.8
20260507192000 13 57 3.2 0.0 0.00 0.00 0.00 99 1008.8
20260507191000 15 61 14.5 0.0 0.00 0.00 0.00 99 1008.8
20260507190002 13 77 0.0 0.0 0.00 0.00 0.00 99 1008.8
20260507185000 13 102 0.0 0.0 0.00 0.00 0.00 99 1008.4
20260507184000 15 152 3.2 0.0 0.00 0.00 0.00 99 1008.4
20260507183000 15 180 6.4 0.0 0.00 0.00 0.00 99 1008.4
20260507182000 15 179 3.2 0.0 0.00 0.00 0.00 99 1008.4
20260507181001 15 215 11.3 0.0 0.00 0.00 0.00 99 1008.1
20260507180001 15 212 17.7 0.0 0.00 0.00 0.00 99 1007.7
20260507175000 15 186 29.0 0.0 0.00 0.00 0.00 99 1007.7
20260507174001 15 185 25.7 0.0 0.00 0.00 0.00 99 1007.7
20260507173000 15 200 25.7 0.0 0.00 0.00 0.00 99 1007.7
20260507172001 15 180 20.9 0.0 0.00 0.00 0.00 99 1007.7
20260507171001 15 191 14.5 0.0 0.00 0.00 0.00 99 1007.7
20260507170001 15 183 25.7 0.0 0.00 0.00 0.00 99 1007.4
20260507165001 15 159 17.7 0.0 0.00 0.00 0.00 99 1007.7
20260507164000 15 180 17.7 0.0 0.00 0.00 0.00 99 1007.7
20260507163000 15 203 14.5 0.0 0.00 0.00 0.00 99 1007.7
20260507162000 15 188 11.3 0.0 0.00 0.00 0.00 99 1007.7
20260507161001 15 186 11.3 0.0 0.00 0.00 0.00 99 1007.7
20260507160001 15 188 14.5 0.0 0.00 0.00 0.00 99 1007.7
20260507155001 15 176 20.9 0.0 0.00 0.00 0.00 99 1007.7
20260507154000 15 180 25.7 0.0 0.00 0.00 0.00 99 1007.7
20260507153001 16 152 11.3 0.0 0.00 0.00 0.00 99 1008.1
20260507152000 16 171 17.7 0.0 0.00 0.00 0.00 99 1008.1
20260507151001 16 175 29.0 0.0 0.00 0.00 0.00 99 1008.1
20260507150001 16 157 32.2 0.0 0.00 0.00 0.00 99 1008.1
20260507145001 17 160 29.0 0.0 0.00 0.00 0.00 97 1007.7
20260507144000 17 180 20.9 0.0 0.00 0.00 0.00 93 1007.7
20260507143001 17 195 32.2 0.0 0.00 0.00 0.00 92 1007.7
20260507142001 18 173 20.9 0.0 0.00 0.00 0.00 84 1007.4
20260507141000 18 217 17.7 0.0 0.00 0.00 0.00 78 1006.7
20260507140001 18 227 25.7 0.0 0.00 0.00 0.00 78 1006.7
20260507135001 18 242 17.7 0.0 0.00 0.00 0.00 78 1006.4
20260507134000 18 258 6.4 0.0 0.00 0.00 0.00 76 1006.4
20260507133001 20 229 25.7 0.0 0.00 0.00 0.00 72 1006.4
20260507132001 18 274 25.7 0.0 0.00 0.00 0.00 80 1006.4
20260507131000 20 236 32.2 0.0 0.00 0.00 0.00 78 1006.4
20260507130001 20 222 17.7 0.0 0.00 0.00 0.00 80 1006.4
20260507125000 20 270 20.9 0.0 0.00 0.00 0.00 70 1006.4
20260507124001 21 239 32.2 0.0 0.00 0.00 0.00 70 1006.4
20260507123000 22 331 11.3 0.0 0.00 0.00 0.00 70 1006.4
20260507122001 21 341 14.5 0.0 0.00 0.00 0.00 71 1006.4
20260507121001 21 242 14.5 0.0 0.00 0.00 0.00 74 1006.4
20260507120001 21 239 25.7 0.0 0.00 0.00 0.00 72 1006.4
20260507115000 21 272 20.9 0.0 0.00 0.00 0.00 72 1006.4
20260507114001 21 320 17.7 0.0 0.00 0.00 0.00 71 1006.4
20260507113001 21 221 32.2 0.0 0.00 0.00 0.00 70 1006.4
20260507112001 21 223 29.0 0.0 0.00 0.00 0.00 69 1006.4
20260507111000 21 319 14.5 0.0 0.00 0.00 0.00 69 1006.4
20260507110000 21 253 40.2 0.0 0.00 0.00 0.00 69 1006.4
20260507105001 21 220 29.0 0.0 0.00 0.00 0.00 70 1006.4
20260507104001 21 328 20.9 0.0 0.00 0.00 0.00 70 1006.4
20260507103000 21 256 25.7 0.0 0.00 0.00 0.00 72 1006.4
20260507102001 22 236 14.5 0.0 0.00 0.00 0.00 70 1006.1
20260507101000 22 302 6.4 0.0 0.00 0.00 0.00 71 1006.1
20260507100002 21 275 32.2 0.0 0.00 0.00 0.00 70 1005.7
20260507095000 22 300 32.2 0.0 0.00 0.00 0.00 68 1005.7
20260507094001 22 241 29.0 0.0 0.00 0.00 0.00 67 1005.7
20260507093001 22 224 14.5 0.0 0.00 0.00 0.00 68 1005.7
20260507092000 22 226 25.7 0.0 0.00 0.00 0.00 65 1005.7
20260507091000 22 246 25.7 0.0 0.00 0.00 0.00 66 1005.7
20260507090001 21 234 20.9 0.0 0.00 0.00 0.00 67 1005.7
20260507085001 21 270 25.7 0.0 0.00 0.00 0.00 67 1005.7
20260507084000 21 251 20.9 0.0 0.00 0.00 0.00 67 1005.7
20260507083001 21 226 17.7 0.0 0.00 0.00 0.00 67 1005.4
20260507082000 21 249 40.2 0.0 0.00 0.00 0.00 69 1005.4
20260507081001 21 265 25.7 0.0 0.00 0.00 0.00 67 1005.0
20260507080001 21 254 20.9 0.0 0.00 0.00 0.00 67 1005.0
20260507075000 21 237 17.7 0.0 0.00 0.00 0.00 68 1005.0
20260507074000 21 207 20.9 0.0 0.00 0.00 0.00 68 1005.0
20260507073000 21 256 17.7 0.0 0.00 0.00 0.00 66 1005.0
20260507072000 21 265 14.5 0.0 0.00 0.00 0.00 68 1005.0
20260507071001 21 314 6.4 0.0 0.00 0.00 0.00 67 1005.0
20260507070000 21 224 20.9 0.0 0.00 0.00 0.00 70 1004.7
20260507065001 20 211 25.7 0.0 0.00 0.00 0.00 70 1004.7
20260507064001 20 248 14.5 0.0 0.00 0.00 0.00 70 1004.7
20260507063000 20 307 11.3 0.0 0.00 0.00 0.00 69 1004.7
20260507062000 20 253 14.5 0.0 0.00 0.00 0.00 71 1004.7
20260507061000 20 233 25.7 0.0 0.00 0.00 0.00 73 1004.0
20260507060001 18 334 3.2 0.0 0.00 0.00 0.00 75 1004.0
20260507055000 18 351 6.4 0.0 0.00 0.00 0.00 73 1004.0
20260507054000 18 234 11.3 0.0 0.00 0.00 0.00 71 1004.0
20260507053000 18 244 11.3 0.0 0.00 0.00 0.00 73 1003.7
20260507052000 17 177 17.7 0.0 0.00 0.00 0.00 74 1003.7
20260507051000 17 212 20.9 0.0 0.00 0.00 0.00 74 1003.7
20260507050001 17 199 11.3 0.0 0.00 0.00 0.00 74 1003.7
20260507045000 17 176 11.3 0.0 0.00 0.00 0.00 74 1003.7
20260507044000 17 192 14.5 0.0 0.00 0.00 0.00 74 1003.7
20260507043001 17 180 14.5 0.0 0.00 0.00 0.00 74 1003.7
20260507042001 17 289 6.4 0.0 0.00 0.00 0.00 70 1003.7
20260507041001 17 219 11.3 0.0 0.00 0.00 0.00 71 1003.3
20260507040001 17 191 14.5 0.0 0.00 0.00 0.00 72 1003.0
20260507035000 17 184 25.7 0.0 0.00 0.00 0.00 73 1003.0
20260507034000 17 207 40.2 0.0 0.00 0.00 0.00 73 1003.0
20260507033000 17 183 14.5 0.0 0.00 0.00 0.00 74 1003.3
20260507032000 17 174 0.0 0.0 0.00 0.00 0.00 72 1003.3
20260507031001 17 213 20.9 0.0 0.00 0.00 0.00 72 1003.0
20260507030000 17 190 40.2 0.0 0.00 0.00 0.00 71 1003.0
20260507025000 17 256 20.9 0.0 0.00 0.00 0.00 72 1003.0
20260507024001 17 200 29.0 0.0 0.00 0.00 0.00 76 1003.0
20260507023000 17 177 29.0 0.0 0.00 0.00 0.00 79 1003.0
20260507022001 15 180 20.9 0.0 0.00 0.00 0.00 87 1003.0
20260507021001 15 174 11.3 0.0 0.00 0.00 0.00 90 1003.0
20260507020000 12 163 6.4 0.0 0.00 0.00 0.00 99 1003.0
20260507015001 12 6 3.2 0.0 0.00 0.00 0.00 99 1003.0
20260507014001 12 13 3.2 0.0 0.00 0.00 0.00 99 1003.0